Ceredo, WV

4:31 AM EDT on August 24, 2016 (GMT -0400)
Tri-State / Ferguson

Weather History for KHTS - February, 2013

Change the Weather History Date:

Friday, February 8, 2013

  Actual Average Record
Temperature  
Mean Temperature 42 °F 36 °F  
Max Temperature 49 °F 45 °F 77 °F (1937)
Min Temperature 34 °F 27 °F -5 °F (1899)
Degree Days  
Heating Degree Days 23 29  
Month to date heating degree days 249 238  
Since 1 July heating degree days 2875 2962  
Cooling Degree Days 0 0  
Month to date cooling degree days 0 0  
Year to date cooling degree days 0 0  
Moisture  
Dew Point 33 °F    
Average Humidity 75    
Maximum Humidity 93    
Minimum Humidity 56    
Precipitation  
Precipitation 0.08 in 0.11 in 1.44 in (1994)
Month to date precipitation 0.41 0.86  
Year to date precipitation 4.33 3.83  
Snow  
Snow 0.00 in - - ()
Month to date snowfall 5.3  
Since 1 September snowfall 11.7  
Snow Depth 0.00 in    
Sea Level Pressure  
Sea Level Pressure 30.03 in    
Wind  
Wind Speed 8 mph (West)    
Max Wind Speed 17 mph    
Max Gust Speed 25 mph    
Visibility 10 miles    
Events Rain    
T = Trace of Precipitation, MM = Missing Value Source: NWS Daily Summary

Daily Weather History Graph

Daily Weather History Graph

Search for Another Location

Airport or City:

Trip Planner

Search our weather history database for the weather conditions in past years. The results will help you decide how hot, cold, wet, or windy it might be!

Date:

Astronomy

Feb. 08, 2013 Rise Set
Actual Time 7:28 AM EST 6:00 PM EST
Civil Twilight 7:00 AM EST 6:28 PM EST
Nautical Twilight 6:29 AM EST 6:59 PM EST
Astronomical Twilight 5:58 AM EST 7:30 PM EST
Moon 5:55 AM EST (2/8) 4:33 PM EST (2/8)
Length of Visible Light 11h 27m
Length of Day
10h 32m
Waning Crescent, 3% of the Moon is Illuminated
Feb 8
Waning Crescent
Feb 10
New
Feb 17
First Quarter
Feb 25
Full
Mar 4
Last Quarter

Hourly Weather History & Observations

Time (EST) Temp. Windchill Dew Point Humidity Pressure Visibility Wind Dir Wind Speed Gust Speed Precip Events Conditions
12:51 AM 48.9 °F - 36.0 °F 61% 29.88 in 10.0 mi South 4.6 mph - N/A   Clear
1:51 AM 48.0 °F - 36.0 °F 63% 29.86 in 10.0 mi SSE 8.1 mph - N/A   Clear
2:51 AM 48.0 °F - 36.0 °F 63% 29.85 in 10.0 mi South 8.1 mph - N/A   Clear
3:51 AM 46.9 °F - 36.0 °F 66% 29.83 in 10.0 mi South 6.9 mph - N/A   Partly Cloudy
4:51 AM 46.9 °F - 37.0 °F 68% 29.82 in 10.0 mi South 6.9 mph - N/A   Overcast
5:51 AM 48.0 °F - 37.0 °F 66% 29.81 in 10.0 mi South 6.9 mph - N/A   Overcast
6:11 AM 48.2 °F - 37.4 °F 66% 29.82 in 10.0 mi South 3.5 mph - N/A   Overcast
6:51 AM 46.0 °F 42.5 °F 39.0 °F 76% 29.82 in 10.0 mi SSW 6.9 mph - 0.01 in Rain Light Rain
7:51 AM 44.6 °F 40.2 °F 42.8 °F 93% 29.85 in 7.0 mi SW 8.1 mph - 0.04 in Rain Light Rain
8:51 AM 46.4 °F 44.3 °F 44.6 °F 93% 29.89 in 9.0 mi WNW 4.6 mph - 0.03 in Rain Light Rain
9:06 AM 46.4 °F 40.7 °F 42.8 °F 87% 29.89 in 10.0 mi NW 12.7 mph 20.7 mph 0.00 in   Overcast
9:51 AM 42.1 °F 35.2 °F 37.0 °F 82% 29.94 in 10.0 mi NW 12.7 mph 23.0 mph 0.00 in   Overcast
10:51 AM 39.0 °F 31.0 °F 34.0 °F 82% 30.00 in 7.0 mi NW 13.8 mph 21.9 mph N/A   Overcast
11:51 AM 39.0 °F 31.4 °F 30.9 °F 73% 30.03 in 10.0 mi WNW 12.7 mph 20.7 mph N/A   Overcast
12:51 PM 39.0 °F 33.4 °F 30.9 °F 73% 30.04 in 10.0 mi WNW 8.1 mph 18.4 mph N/A   Overcast
1:51 PM 37.9 °F 31.5 °F 30.0 °F 73% 30.06 in 10.0 mi WNW 9.2 mph 21.9 mph N/A   Overcast
2:51 PM 37.9 °F 30.5 °F 30.0 °F 73% 30.07 in 10.0 mi WNW 11.5 mph 18.4 mph N/A   Overcast
3:51 PM 37.9 °F 33.5 °F 30.2 °F 74% 30.10 in 10.0 mi WNW 5.8 mph 18.4 mph N/A   Overcast
4:51 PM 37.9 °F 32.1 °F 28.9 °F 70% 30.13 in 9.0 mi NW 8.1 mph - N/A   Overcast
5:51 PM 36.0 °F 29.6 °F 27.0 °F 70% 30.17 in 8.0 mi WNW 8.1 mph 17.3 mph N/A   Overcast
6:51 PM 36.0 °F 29.6 °F 26.1 °F 67% 30.19 in 10.0 mi NW 8.1 mph - N/A   Overcast
7:13 PM 35.6 °F 27.5 °F 26.6 °F 70% 30.20 in 10.0 mi NW 11.5 mph 16.1 mph N/A   Overcast
7:51 PM 35.1 °F 27.4 °F 26.1 °F 70% 30.23 in 10.0 mi WNW 10.4 mph 21.9 mph N/A   Overcast
8:51 PM 35.1 °F 29.3 °F 26.1 °F 70% 30.25 in 10.0 mi NW 6.9 mph - N/A   Overcast
9:51 PM 35.1 °F 30.1 °F 26.1 °F 70% 30.28 in 10.0 mi NNW 5.8 mph - N/A   Overcast
10:25 PM 35.6 °F 28.0 °F 26.6 °F 70% 30.27 in 10.0 mi NW 10.4 mph - N/A   Overcast
10:51 PM 34.0 °F 26.6 °F 24.1 °F 67% 30.29 in 10.0 mi NW 9.2 mph - N/A   Overcast
11:51 PM 34.0 °F 28.8 °F 24.1 °F 67% 30.29 in 10.0 mi NW 5.8 mph - N/A   Overcast